[[{"header":{"parameterUnit":"m.s-1","parameterCategory":1,"la1":30.2991,"la2":30.254,"lo1":-89.0895,"lo2":-89.0444,"dy":0.0017,"dx":0.0017,"nx":28,"ny":28,"refTime":"2025-12-03T03:00:00:Z","depth":0,"parameterNumber":2,"parameterNumberName":"U-component_of_WINDS"},"data":[0,0,0,0,0,0,0,0,0,0,0,0,0,0,0,0,0,0,0,0,0,0,0,0,0,0,0,0,0,0,0,0,0,0,0,0,0,0,0,0,0,0,0,0,0,0,0,0,0,0,0,0,0,0,0,0,0,0,-2.5542,-2.5543,0,-2.5616,-2.5617,-2.5618,-2.5583,-2.5581,-2.5579,-2.5578,-2.5656,-2.566,-2.5663,0,0,0,0,0,0,0,0,0,0,0,0,0,-2.5373,-2.5376,-2.5542,-2.5543,-2.5544,-2.5616,-2.5617,-2.5618,-2.5583,-2.5581,-2.5579,-2.5577,-2.5655,-2.5659,-2.5664,0,0,0,0,0,0,0,0,0,0,0,0,0,-2.5446,-2.5377,-2.5542,-2.5535,-2.5535,-2.5616,-2.5617,-2.5618,-2.5584,-2.5581,-2.5578,-2.5576,-2.5653,-2.5659,-2.5664,-2.5756,0,0,-2.5682,-2.5684,0,0,0,0,0,0,0,0,-2.5442,-2.5453,-2.5535,-2.5536,-2.5536,-2.5587,-2.5586,-2.5665,-2.5585,-2.5566,-2.5578,-2.5574,-2.5636,-2.5643,-2.5663,-2.576,-2.5763,-2.5682,-2.5686,-2.5688,-2.569,0,0,0,0,0,0,0,-2.5437,-2.5449,-2.5572,-2.5537,-2.5537,-2.5529,-2.5537,-2.5601,-2.5616,-2.5567,-2.5565,-2.5574,-2.5635,-2.5657,-2.5664,-2.5764,-2.5682,-2.5687,-2.5691,-2.5693,-2.594,-2.5942,0,0,0,0,0,0,-2.5432,-2.5445,-2.5569,-2.5574,-2.5481,-2.5535,-2.5543,-2.5574,-2.5615,-2.5618,-2.5576,-2.5572,-2.5649,-2.5658,-2.5667,-2.5776,-2.5688,-2.5694,-2.5697,-2.5936,-2.594,-2.5944,0,0,0,0,0,0,-2.5429,-2.5443,-2.5566,-2.5509,-2.5524,-2.554,-2.5576,-2.5577,-2.5599,-2.5622,-2.5624,-2.5596,-2.5647,-2.5659,-2.5734,-2.5778,-2.5696,-2.5702,-2.5933,-2.5938,-2.5942,-2.5996,0,0,0,0,0,0,-2.5424,-2.5442,-2.5477,-2.551,-2.5527,-2.5632,-2.5579,-2.558,-2.5609,-2.5604,-2.5641,-2.5644,-2.5646,-2.5725,-2.574,-2.5785,-2.5706,-2.5929,-2.5935,-2.594,-2.599,-2.6001,-2.6011,0,0,0,0,0,-2.5418,-2.549,-2.5479,-2.5494,-2.5571,-2.5634,-2.5644,-2.5643,-2.5612,-2.5647,-2.5662,-2.5643,-2.5771,-2.5733,-2.5749,-2.5797,-2.5926,-2.5933,-2.594,-2.5985,-2.5999,-2.6011,0,0,0,0,0,0,-2.5463,-2.5494,-2.5482,-2.5567,-2.5598,-2.5628,-2.5672,-2.5659,-2.57,-2.5694,-2.5692,-2.5701,-2.5778,-2.5795,-2.5752,-2.5887,-2.5844,-2.5854,-2.5873,-2.5887,-2.5897,-2.5891,-2.5711,0,0,0,0,0,-2.5483,-2.5531,-2.5556,-2.5629,-2.5645,-2.5656,-2.5684,-2.568,-2.5713,-2.5726,-2.5746,-2.5779,-2.5826,-2.5857,-2.5903,-2.5993,-2.6,-2.6033,-2.6044,-2.6052,-2.6061,-2.6109,-2.6123,-2.5966,-2.5966,-2.5966,0,0,-2.5524,-2.5547,-2.5578,-2.5638,-2.5662,-2.5712,-2.5667,-2.5723,-2.576,-2.5735,-2.5806,-2.5822,-2.5858,-2.5941,-2.5978,-2.5957,-2.6106,-2.6061,-2.6068,-2.6072,-2.6117,-2.6132,-2.6145,-2.5971,-2.597,-2.597,0,0,-2.5625,-2.5648,-2.571,-2.5734,-2.577,-2.5777,-2.5792,-2.5824,-2.5833,-2.5905,-2.5886,-2.5931,-2.6013,-2.604,-2.6064,-2.6174,-2.6158,-2.6189,-2.6245,-2.6291,-2.6303,-2.6314,-2.6352,-2.6366,-2.6198,-2.6198,-2.6198,0,-2.5672,-2.5746,-2.5744,-2.58,-2.5827,-2.5805,-2.5868,-2.5892,-2.5942,-2.5961,-2.5936,-2.6038,-2.6061,-2.6149,-2.6176,-2.6197,-2.6213,-2.6184,-2.6302,-2.6313,-2.6323,-2.6359,-2.6374,-2.6201,-2.6201,-2.6201,-2.62,0,-2.5802,-2.5854,-2.59,-2.5946,-2.5978,-2.6038,-2.6044,-2.6077,-2.6072,-2.6081,-2.6154,-2.6181,-2.623,-2.6251,-2.6247,-2.6339,-2.6324,-2.6301,-2.6258,-2.6341,-2.6375,-2.6389,-2.6206,-2.6205,-2.6204,-2.6203,0,0,-2.5933,-2.5976,-2.5993,-2.6013,-2.6051,-2.6091,-2.615,-2.6197,-2.6225,-2.626,-2.6309,-2.6379,-2.6357,-2.6384,-2.6383,-2.6424,-2.6508,-2.6395,-2.6396,-2.6414,-2.6609,-2.6625,-2.6641,-2.6498,-2.65,-2.6502,-2.6605,0,-2.6035,-2.6136,-2.6135,-2.6229,-2.6276,-2.6256,-2.6307,-2.6336,-2.6347,-2.6389,-2.6401,-2.645,-2.6419,-2.6435,-2.6474,-2.6489,-2.6547,-2.6482,-2.6542,-2.6545,-2.6532,-2.6659,-2.6677,-2.6772,-2.6619,-2.6621,-2.6623,0,-2.6168,-2.6205,-2.6303,-2.6333,-2.6353,-2.6398,-2.6441,-2.6482,-2.6514,-2.6519,-2.6549,-2.6541,-2.6601,-2.6556,-2.6638,-2.6594,-2.6619,-2.663,-2.6634,-2.6638,-2.6588,-2.6666,-2.6803,-2.6817,-2.6644,-2.6642,-2.6641,0,-2.6251,-2.6327,-2.6395,-2.6413,-2.645,-2.6482,-2.6499,-2.6528,-2.6557,-2.6595,-2.6613,-2.6658,-2.6683,-2.6718,-2.6722,-2.6689,-2.6804,-2.676,-2.6809,-2.6809,-2.6833,-2.6832,-2.6975,-2.6852,-2.6852,-2.6852,-2.6851,0,-2.6365,-2.6425,-2.6432,-2.6474,-2.6541,-2.654,-2.6607,-2.6621,-2.6647,-2.6692,-2.6678,-2.672,-2.6724,-2.6767,-2.6771,-2.6838,-2.685,-2.6855,-2.6855,-2.6855,-2.6855,-2.6871,-2.6864,-2.6855,-2.6855,-2.6854,-2.6853,0,-2.647,-2.6477,-2.6549,-2.6578,-2.6586,-2.6634,-2.6659,-2.6699,-2.6708,-2.6764,-2.6777,-2.6792,-2.6843,-2.685,-2.691,-2.6913,-2.6992,-2.6986,-2.6981,-2.6979,-2.7028,-2.7022,-2.7186,-2.7207,-2.7071,-2.7072,-2.7073,0,-2.6541,-2.6586,-2.6619,-2.6647,-2.6666,-2.6712,-2.674,-2.6741,-2.6771,-2.6811,-2.6846,-2.6895,-2.6933,-2.7015,-2.7031,-2.7077,-2.7071,-2.7125,-2.7077,-2.7076,-2.707,-2.7067,-2.7071,-2.7134,-2.7135,-2.7136,-2.7137,0,-2.6666,-2.6667,-2.6708,-2.675,-2.6784,-2.6817,-2.6849,-2.6873,-2.6878,-2.6913,-2.6963,-2.6993,-2.7053,-2.7102,-2.7146,-2.7165,-2.7152,-2.7152,-2.7166,-2.7166,-2.716,-2.7163,-2.7004,-2.7148,-2.7147,-2.7146,-2.7146,-2.7145,-2.6755,-2.6794,-2.6823,-2.6869,-2.6892,-2.6922,-2.696,-2.6974,-2.7016,-2.7063,-2.7062,-2.7117,-2.7148,-2.7207,-2.7228,-2.7272,-2.7254,-2.7274,-2.7279,-2.7284,-2.7288,-2.7154,-2.728,-2.728,-2.728,-2.7279,-2.7279,0,-2.6878,-2.6896,-2.6938,-2.6981,-2.7017,-2.7002,-2.7036,-2.7067,-2.7115,-2.7145,-2.7183,-2.7241,-2.7287,-2.7307,-2.7353,-2.7384,-2.738,-2.7396,-2.7393,-2.7398,-2.7301,-2.7284,-2.7399,-2.7399,-2.7399,-2.7399,-2.7399,-2.7399,-2.6947,-2.7011,-2.7016,-2.7092,-2.711,-2.7163,-2.7183,-2.7211,-2.7234,-2.7298,-2.7337,-2.7349,-2.7375,-2.7422,-2.7464,-2.7469,-2.7486,-2.7505,-2.7507,-2.7417,-2.7405,-2.7393,-2.7377,-2.7509,-2.7509,-2.76,-2.7601,-2.7601]},{"header":{"parameterUnit":"m.s-1","parameterCategory":1,"la1":30.2991,"la2":30.254,"lo1":-89.0895,"lo2":-89.0444,"dy":0.0017,"dx":0.0017,"nx":28,"ny":28,"refTime":"2025-12-03T03:00:00:Z","depth":0,"parameterNumber":3,"parameterNumberName":"V-component_of_WINDS"},"data":[0,0,0,0,0,0,0,0,0,0,0,0,0,0,0,0,0,0,0,0,0,0,0,0,0,0,0,0,0,0,0,0,0,0,0,0,0,0,0,0,0,0,0,0,0,0,0,0,0,0,0,0,0,0,0,0,0,0,-0.4943,-0.4944,0,-0.5,-0.5,-0.5001,-0.5026,-0.5026,-0.5026,-0.5026,-0.5085,-0.5087,-0.5089,0,0,0,0,0,0,0,0,0,0,0,0,0,-0.4858,-0.4859,-0.4943,-0.4944,-0.4945,-0.4999,-0.5,-0.5001,-0.5026,-0.5026,-0.5026,-0.5026,-0.5085,-0.5087,-0.5089,0,0,0,0,0,0,0,0,0,0,0,0,0,-0.4902,-0.4859,-0.4943,-0.4963,-0.4966,-0.4999,-0.5,-0.5001,-0.5026,-0.5026,-0.5026,-0.5025,-0.5084,-0.5087,-0.5089,-0.5107,0,0,-0.5097,-0.5098,0,0,0,0,0,0,0,0,-0.49,-0.4906,-0.496,-0.4962,-0.4965,-0.5005,-0.4992,-0.5037,-0.5026,-0.5003,-0.5026,-0.5025,-0.5059,-0.5064,-0.5075,-0.511,-0.5112,-0.5097,-0.5099,-0.51,-0.51,0,0,0,0,0,0,0,-0.4897,-0.4903,-0.4966,-0.496,-0.4964,-0.497,-0.4976,-0.5001,-0.5031,-0.5005,-0.5007,-0.5013,-0.506,-0.5072,-0.5076,-0.5113,-0.5097,-0.5099,-0.5101,-0.5102,-0.5165,-0.5166,0,0,0,0,0,0,-0.489,-0.4901,-0.4964,-0.4967,-0.4931,-0.4972,-0.4979,-0.4993,-0.5031,-0.5037,-0.5013,-0.5014,-0.5068,-0.5073,-0.5078,-0.5101,-0.51,-0.5102,-0.5103,-0.5165,-0.5165,-0.5166,0,0,0,0,0,0,-0.4888,-0.4896,-0.4961,-0.4934,-0.4943,-0.4973,-0.4989,-0.4994,-0.5005,-0.5037,-0.5043,-0.502,-0.5068,-0.5075,-0.5099,-0.5104,-0.5103,-0.5105,-0.5165,-0.5165,-0.5166,-0.5148,0,0,0,0,0,0,-0.4886,-0.4895,-0.4902,-0.4934,-0.4945,-0.4981,-0.4989,-0.4995,-0.5009,-0.5011,-0.5045,-0.505,-0.5068,-0.5096,-0.5102,-0.5107,-0.5107,-0.5165,-0.5165,-0.5165,-0.5148,-0.5148,-0.5147,0,0,0,0,0,-0.4882,-0.4895,-0.4902,-0.4909,-0.4954,-0.4981,-0.4987,-0.5008,-0.501,-0.5017,-0.5037,-0.5049,-0.5102,-0.5098,-0.5105,-0.5111,-0.5165,-0.5165,-0.5165,-0.5149,-0.5148,-0.5147,0,0,0,0,0,0,-0.4863,-0.49,-0.4908,-0.4931,-0.4953,-0.4986,-0.4996,-0.5006,-0.5029,-0.5029,-0.5054,-0.5062,-0.5084,-0.51,-0.5095,-0.513,-0.5134,-0.5136,-0.5119,-0.5118,-0.5118,-0.5114,-0.5109,0,0,0,0,0,-0.4861,-0.488,-0.4912,-0.4929,-0.494,-0.4965,-0.4978,-0.4992,-0.5016,-0.5025,-0.5047,-0.507,-0.5092,-0.5106,-0.5128,-0.515,-0.5158,-0.5158,-0.5158,-0.5157,-0.5159,-0.5171,-0.5171,-0.5167,-0.5167,-0.5167,0,0,-0.4859,-0.4881,-0.4892,-0.4926,-0.4944,-0.4963,-0.4973,-0.4993,-0.5008,-0.5029,-0.5053,-0.507,-0.5097,-0.512,-0.5132,-0.5135,-0.5161,-0.5158,-0.5157,-0.5159,-0.5171,-0.5172,-0.5172,-0.5167,-0.5167,-0.5167,0,0,-0.4863,-0.4882,-0.4898,-0.4916,-0.4943,-0.496,-0.4964,-0.4995,-0.5006,-0.5031,-0.5047,-0.5064,-0.5102,-0.512,-0.5135,-0.5144,-0.5156,-0.5151,-0.5148,-0.516,-0.516,-0.516,-0.5164,-0.5165,-0.5152,-0.5152,-0.5152,0,-0.4856,-0.4885,-0.4906,-0.4924,-0.4939,-0.4957,-0.4974,-0.4991,-0.5024,-0.5034,-0.5036,-0.5082,-0.5102,-0.513,-0.5132,-0.5143,-0.5148,-0.5148,-0.5158,-0.5159,-0.5159,-0.5163,-0.5164,-0.5151,-0.5151,-0.5152,-0.5152,0,-0.4875,-0.4895,-0.4905,-0.4935,-0.4951,-0.4969,-0.4992,-0.5005,-0.5017,-0.5034,-0.5058,-0.5082,-0.5109,-0.5117,-0.5129,-0.5146,-0.5147,-0.5153,-0.5158,-0.5159,-0.5162,-0.5164,-0.515,-0.515,-0.5151,-0.5151,0,0,-0.487,-0.491,-0.4914,-0.4927,-0.4958,-0.4974,-0.4992,-0.5018,-0.5028,-0.5051,-0.5067,-0.5097,-0.5103,-0.5119,-0.5134,-0.5144,-0.5149,-0.5149,-0.515,-0.5148,-0.5169,-0.5164,-0.5165,-0.5157,-0.5157,-0.5158,-0.5167,0,-0.4879,-0.4912,-0.493,-0.4955,-0.4974,-0.4991,-0.5007,-0.5027,-0.5043,-0.5061,-0.5079,-0.51,-0.5106,-0.5116,-0.5127,-0.5146,-0.5154,-0.5146,-0.5172,-0.5173,-0.5165,-0.5167,-0.5162,-0.517,-0.5168,-0.5169,-0.5169,0,-0.4893,-0.4914,-0.4941,-0.4968,-0.4977,-0.4991,-0.5015,-0.5032,-0.5055,-0.5066,-0.5083,-0.5097,-0.5117,-0.512,-0.5148,-0.5142,-0.5154,-0.5165,-0.5165,-0.5169,-0.5171,-0.5171,-0.5173,-0.5174,-0.5171,-0.5171,-0.5171,0,-0.4886,-0.4921,-0.4941,-0.4953,-0.4985,-0.4995,-0.5009,-0.5032,-0.5046,-0.5067,-0.5076,-0.51,-0.5113,-0.5131,-0.5151,-0.515,-0.5176,-0.5181,-0.5186,-0.5186,-0.5191,-0.5191,-0.5195,-0.5198,-0.5198,-0.5198,-0.5198,0,-0.4894,-0.491,-0.4939,-0.4951,-0.4969,-0.499,-0.5007,-0.5023,-0.5043,-0.5059,-0.5076,-0.5091,-0.5116,-0.5134,-0.515,-0.517,-0.5176,-0.5186,-0.519,-0.5184,-0.5183,-0.5193,-0.5193,-0.5199,-0.5199,-0.5199,-0.5199,0,-0.489,-0.491,-0.4933,-0.4962,-0.4969,-0.4981,-0.5006,-0.5019,-0.5035,-0.5055,-0.5061,-0.5086,-0.5108,-0.513,-0.516,-0.517,-0.519,-0.5196,-0.5182,-0.5185,-0.5189,-0.5188,-0.52,-0.5202,-0.5203,-0.5203,-0.5203,0,-0.4894,-0.4906,-0.4936,-0.4947,-0.4961,-0.4979,-0.4993,-0.5013,-0.5027,-0.5054,-0.5063,-0.5086,-0.5106,-0.514,-0.5162,-0.5184,-0.519,-0.5193,-0.5194,-0.5188,-0.519,-0.5189,-0.5191,-0.5192,-0.5192,-0.5192,-0.5192,0,-0.4898,-0.4907,-0.4926,-0.4947,-0.4963,-0.4981,-0.5,-0.5009,-0.5033,-0.5048,-0.507,-0.5084,-0.5114,-0.5137,-0.5161,-0.5177,-0.5188,-0.5191,-0.5194,-0.5189,-0.518,-0.5185,-0.5181,-0.5191,-0.5191,-0.5191,-0.5191,-0.5191,-0.4898,-0.491,-0.4932,-0.4952,-0.4968,-0.4985,-0.4998,-0.5015,-0.5034,-0.5059,-0.507,-0.5092,-0.5115,-0.5149,-0.5164,-0.5182,-0.5185,-0.5189,-0.519,-0.519,-0.5189,-0.5177,-0.5187,-0.5187,-0.5187,-0.5187,-0.5187,0,-0.4903,-0.4918,-0.4936,-0.4962,-0.4977,-0.4986,-0.5007,-0.502,-0.5038,-0.5058,-0.5076,-0.5101,-0.5123,-0.5146,-0.5169,-0.5179,-0.5185,-0.5184,-0.5184,-0.5187,-0.5185,-0.518,-0.5179,-0.5179,-0.5179,-0.5179,-0.5179,-0.5179,-0.4908,-0.4927,-0.4939,-0.4966,-0.4981,-0.5002,-0.5014,-0.5029,-0.5045,-0.5072,-0.509,-0.5104,-0.5125,-0.5149,-0.5169,-0.5175,-0.5183,-0.5181,-0.5189,-0.5187,-0.5187,-0.5188,-0.5184,-0.5182,-0.5182,-0.5189,-0.5189,-0.5189]}]]